Location: Wald
(31.7579°N, 86.6655°W)
Time: 12:26:34
(UTC+00:00)

SL-16 R/B - Pass Details

Date: 14 July 2020
Orbit: 985 x 1006 km, 99.5° (Epoch: 09 August)

Event Time Altitude Azimuth Distance (km) Brightness Sun altitude
Exits shadow 07:12:18 50° 82° (E) 1,249 3.1 -33.3°
Maximum altitude 07:12:36 51° 72° (ENE) 1,242 3.1 -33.3°
Drops below altitude 10° 07:18:37 10° 358° (N) 2,783 5.6 -32.8°
Sets 07:21:10 0° 353° (N) 3,737 6.3 -32.6°
